Sand Point, AK

3:16 PM AKDT on June 28, 2017 (GMT -0800)
Sand Point

Weather History for PASD - November, 2013

Change the Weather History Date:

Monday, November 4, 2013

  Actual Average Record
Temperature  
Mean Temperature 42 °F -  
Max Temperature 46 °F 40 °F 49 °F (1986)
Min Temperature 39 °F 34 °F 24 °F (1983)
Degree Days  
Heating Degree Days 22    
Moisture  
Dew Point 40 °F    
Average Humidity 87    
Maximum Humidity 93    
Minimum Humidity 81    
Precipitation  
Precipitation 0.00 in - - ()
Sea Level Pressure  
Sea Level Pressure 29.47 in    
Wind  
Wind Speed 13 mph (West)    
Max Wind Speed 24 mph    
Max Gust Speed 33 mph    
Visibility 10 miles    
Events      
Averages and records for this station are not official NWS values.
T = Trace of Precipitation, MM = Missing Value Source: NWS Daily Summary

Daily Weather History Graph

Daily Weather History Graph

Search for Another Location

Airport or City:

Trip Planner

Search our weather history database for the weather conditions in past years. The results will help you decide how hot, cold, wet, or windy it might be!

Date:

Astronomy

Nov. 04, 2013 Rise Set
Actual Time 8:54 AM AKST 5:56 PM AKST
Civil Twilight 8:14 AM AKST 6:35 PM AKST
Nautical Twilight 7:30 AM AKST 7:19 PM AKST
Astronomical Twilight 6:48 AM AKST 8:01 PM AKST
Moon 10:30 AM AKST (11/4) 6:57 PM AKST (11/4)
Length of Visible Light 10h 21m
Length of Day
9h 02m
New Moon, 2% of the Moon is Illuminated
Nov 4
New Moon
Nov 9
First Quarter
Nov 17
Full
Nov 25
Last Quarter
Dec 2
New

Hourly Weather History & Observations

Time (AKST) Temp. Windchill Dew Point Humidity Pressure Visibility Wind Dir Wind Speed Gust Speed Precip Events Conditions
12:16 AM 46.4 °F 38.3 °F 44.6 °F 93% 29.30 in 8.0 mi South 23.0 mph 26.5 mph N/A   Overcast
12:36 AM 44.6 °F 38.1 °F 42.8 °F 93% 29.30 in 7.0 mi South 13.8 mph - N/A   Overcast
12:56 AM 44.6 °F 38.8 °F 42.8 °F 93% 29.30 in 10.0 mi South 11.5 mph - N/A   Overcast
1:16 AM 44.6 °F 38.8 °F 42.8 °F 93% 29.30 in 7.0 mi SSW 11.5 mph 17.3 mph N/A   Overcast
1:36 AM 44.6 °F 38.8 °F 42.8 °F 93% 29.30 in 10.0 mi South 11.5 mph - N/A   Overcast
1:56 AM 44.6 °F 41.4 °F 42.8 °F 93% 29.30 in 7.0 mi South 5.8 mph - N/A   Overcast
2:16 AM 44.6 °F 39.2 °F 42.8 °F 93% 29.30 in 10.0 mi SW 10.4 mph - N/A   Overcast
2:36 AM 46.4 °F 41.1 °F 42.8 °F 87% 29.31 in 10.0 mi WSW 11.5 mph 17.3 mph N/A   Overcast
2:56 AM 44.6 °F 38.1 °F 39.2 °F 81% 29.32 in 10.0 mi West 13.8 mph 19.6 mph N/A   Mostly Cloudy
3:16 AM 44.6 °F 39.7 °F 39.2 °F 81% 29.33 in 10.0 mi West 9.2 mph - N/A   Scattered Clouds
3:36 AM 44.6 °F 42.2 °F 39.2 °F 81% 29.34 in 10.0 mi West 4.6 mph - N/A   Mostly Cloudy
3:56 AM 42.8 °F 39.3 °F 39.2 °F 87% 29.35 in 10.0 mi WNW 5.8 mph - N/A   Scattered Clouds
4:16 AM 42.8 °F 39.3 °F 39.2 °F 87% 29.35 in 10.0 mi West 5.8 mph - N/A   Mostly Cloudy
4:36 AM 42.8 °F - 39.2 °F 87% 29.35 in 10.0 mi Calm Calm - N/A   Overcast
4:56 AM 42.8 °F - 39.2 °F 87% 29.35 in 10.0 mi Calm Calm - N/A   Overcast
5:16 AM 42.8 °F 40.1 °F 39.2 °F 87% 29.35 in 10.0 mi South 4.6 mph - N/A   Overcast
5:36 AM 44.6 °F 40.7 °F 39.2 °F 81% 29.35 in 10.0 mi SW 6.9 mph - N/A   Overcast
5:56 AM 44.6 °F 41.4 °F 39.2 °F 81% 29.36 in 10.0 mi SW 5.8 mph - N/A   Overcast
6:16 AM 44.6 °F 40.7 °F 39.2 °F 81% 29.35 in 10.0 mi West 6.9 mph - N/A   Overcast
6:36 AM 44.6 °F 40.7 °F 39.2 °F 81% 29.36 in 10.0 mi WSW 6.9 mph - N/A   Overcast
6:56 AM 44.6 °F 39.7 °F 39.2 °F 81% 29.36 in 10.0 mi West 9.2 mph - N/A   Scattered Clouds
7:16 AM 44.6 °F 39.7 °F 39.2 °F 81% 29.37 in 10.0 mi West 9.2 mph - N/A   Scattered Clouds
7:36 AM 44.6 °F 39.7 °F 39.2 °F 81% 29.37 in 10.0 mi West 9.2 mph - N/A   Scattered Clouds
7:56 AM 42.8 °F 37.5 °F 39.2 °F 87% 29.38 in 10.0 mi West 9.2 mph - N/A   Mostly Cloudy
8:16 AM 42.8 °F 38.0 °F 41.0 °F 93% 29.39 in 10.0 mi West 8.1 mph - N/A   Mostly Cloudy
8:36 AM 42.8 °F 36.6 °F 41.0 °F 93% 29.39 in 10.0 mi West 11.5 mph - N/A   Mostly Cloudy
8:56 AM 42.8 °F 37.0 °F 41.0 °F 93% 29.40 in 10.0 mi West 10.4 mph - N/A   Mostly Cloudy
9:16 AM 42.8 °F 37.5 °F 39.2 °F 87% 29.41 in 10.0 mi West 9.2 mph - N/A   Mostly Cloudy
9:36 AM 42.8 °F 37.0 °F 39.2 °F 87% 29.42 in 10.0 mi WNW 10.4 mph - N/A   Mostly Cloudy
9:56 AM 42.8 °F 36.6 °F 39.2 °F 87% 29.43 in 10.0 mi WNW 11.5 mph - N/A   Mostly Cloudy
10:16 AM 42.8 °F 37.0 °F 39.2 °F 87% 29.45 in 10.0 mi WNW 10.4 mph - N/A   Mostly Cloudy
10:36 AM 44.6 °F 39.7 °F 41.0 °F 87% 29.46 in 10.0 mi WNW 9.2 mph - N/A   Mostly Cloudy
10:56 AM 44.6 °F 37.4 °F 41.0 °F 87% 29.47 in 10.0 mi West 16.1 mph 20.7 mph N/A   Mostly Cloudy
11:16 AM 44.6 °F 37.4 °F 41.0 °F 87% 29.47 in 10.0 mi WNW 16.1 mph - N/A   Mostly Cloudy
11:36 AM 44.6 °F 37.2 °F 41.0 °F 87% 29.48 in 10.0 mi WNW 17.3 mph 21.9 mph N/A   Mostly Cloudy
11:56 AM 44.6 °F 37.8 °F 41.0 °F 87% 29.49 in 10.0 mi WNW 15.0 mph 20.7 mph N/A   Mostly Cloudy
12:16 PM 44.6 °F 37.4 °F 41.0 °F 87% 29.51 in 10.0 mi WNW 16.1 mph 21.9 mph N/A   Mostly Cloudy
12:36 PM 44.6 °F 36.9 °F 39.2 °F 81% 29.52 in 10.0 mi NW 18.4 mph - N/A   Mostly Cloudy
12:56 PM 44.6 °F 36.6 °F 39.2 °F 81% 29.53 in 10.0 mi NW 19.6 mph 29.9 mph N/A   Mostly Cloudy
1:16 PM 44.6 °F 35.9 °F 39.2 °F 81% 29.53 in 10.0 mi NW 23.0 mph 31.1 mph N/A   Mostly Cloudy
1:36 PM 44.6 °F 36.4 °F 39.2 °F 81% 29.53 in 10.0 mi NW 20.7 mph 28.8 mph N/A   Mostly Cloudy
1:56 PM 44.6 °F 35.9 °F 41.0 °F 87% 29.53 in 10.0 mi WNW 23.0 mph 31.1 mph N/A   Scattered Clouds
2:16 PM 46.4 °F 38.7 °F 41.0 °F 81% 29.55 in 10.0 mi NW 20.7 mph 28.8 mph N/A   Scattered Clouds
2:36 PM 44.6 °F 35.7 °F 42.8 °F 93% 29.55 in 10.0 mi NW 24.2 mph 33.4 mph N/A   Mostly Cloudy
2:56 PM 46.4 °F 38.7 °F 42.8 °F 87% 29.57 in 10.0 mi NW 20.7 mph 26.5 mph N/A   Mostly Cloudy
3:16 PM 44.6 °F 37.2 °F 42.8 °F 93% 29.58 in 10.0 mi NW 17.3 mph - N/A   Mostly Cloudy
3:36 PM 44.6 °F 36.9 °F 42.8 °F 93% 29.59 in 10.0 mi NW 18.4 mph 21.9 mph N/A   Mostly Cloudy
6:02 PM 42.8 °F 34.0 °F 39.2 °F 87% 29.70 in 10.0 mi WNW 20.7 mph 25.3 mph N/A   Mostly Cloudy
10:36 PM 39.2 °F 29.6 °F 37.4 °F 93% 29.90 in 10.0 mi NNW 19.6 mph - N/A   Mostly Cloudy
10:56 PM 39.2 °F 30.5 °F 35.6 °F 87% 29.92 in 10.0 mi NNW 16.1 mph 27.6 mph N/A   Mostly Cloudy
11:16 PM 39.2 °F 30.5 °F 35.6 °F 87% 29.94 in 10.0 mi NW 16.1 mph 23.0 mph N/A   Overcast
11:36 PM 39.2 °F 32.5 °F 35.6 °F 87% 29.95 in 10.0 mi WNW 10.4 mph 18.4 mph N/A   Overcast
11:56 PM 41.0 °F 31.9 °F 35.6 °F 81% 29.96 in 10.0 mi WNW 19.6 mph 27.6 mph N/A   Overcast